{"data":{"norad_id":68933,"intl_designator":"2026-098Q","name":"KUIPER-00421","alt_names":[],"object_type":"PAYLOAD","status":"ACTIVE","operator":null,"country":"US","launch_date":"2026-04-30","launch_site_code":"FRGUI","launch_vehicle":null,"mission":null,"orbit_class":"UNKNOWN","rcs_meters":null,"size_class":null,"mass_kg":null,"dimensions":null,"purposes":[],"wikipedia_slug":null,"has_3d_model":false,"image_url":null,"decayed_at":null,"tle_current":{"epoch":"2026-05-25T01:23:24.438336Z","epoch_age_seconds":70156,"freshness":"FRESH","line1":"1 68933U 26098Q   26145.05792174  .00018207  00000+0  55185-3 0  9991","line2":"2 68933  51.8751 179.2454 0009389  50.6512 309.5304 15.34156025  3793","mean_motion":15.34156025,"eccentricity":0.0009389,"inclination_deg":51.8751,"raan_deg":179.2454,"arg_perigee_deg":50.6512,"mean_anomaly_deg":309.5304,"bstar":0.00055185,"rev_number":379,"period_min":93.862682578195,"perigee_km":457.00493558944,"apogee_km":469.85202725045,"semimajor_km":6841.5654814199,"source":"CELESTRAK","updated_at":"2026-05-25T13:38:08.795396Z"}}}